Regional Weather Roundup
Issued by NWS Nashville, TN

Home | Current Version | Previous Version | Text Only | Print | Product List | Glossary On
Versions: 1 2 3 4 5 6 7 8 9 10 11 12 13 14 15 16 17 18 19 20 21 22 23 24 25 26 27
000
ASUS44 KOHX 220410
RWROHX
MIDDLE TENNESSEE HOURLY WEATHER ROUNDUP
NATIONAL WEATHER SERVICE NASHVILLE TN
1100 PM CDT MON MAY 21 2018

NOTE: "FAIR" INDICATES FEW OR NO CLOUDS BELOW 12,000 FEET WITH
NO SIGNIFICANT WEATHER AND/OR OBSTRUCTIONS TO VISIBILITY.

* THESE REPORTS ARE NOT UNDER NWS QUALITY CONTROL AND MAY NOT
  REPORT WEATHER SUCH AS PRECIPITATION AND FOG.


TNZ005>011-023>034-057-059-062>066-078-080-220500
...NORTHERN MIDDLE TENNESSEE...

CITY           SKY/WX    TMP DP  RH WIND       PRES   REMARKS
CLARKSVILLE      N/A     71  67  87 VRB3      30.05F
CROSSVILLE     CLOUDY    69  60  73 CALM      30.14F
GALLATIN       CLEAR     73  61  64 S3        30.09S
DICKSON        CLOUDY    70  68  94 S10G20    30.06F FOG
LIVINGSTON     CLEAR     70  61  73 CALM      30.10R
NASHVILLE      MOCLDY    74  61  63 S3        30.07S
PORTLAND       PTCLDY    73  68  83 S5        30.06S
SMYRNA           N/A     71  62  73 CALM      30.08S
SPARTA         CLEAR     64  63  94 CALM      30.09S
SPRINGFIELD    MOCLDY    70  70 100 W3        30.06S
WEST NASHVILLE PTCLDY    72  68  88 CALM      30.05S
$$
TNZ056-058-060-061-075>077-079-093>097-220500
...SOUTHERN MIDDLE TENNESSEE...

CITY           SKY/WX    TMP DP  RH WIND       PRES   REMARKS
COLUMBIA       CLEAR     68  68 100 CALM      30.06S
FAYETTEVILLE   MOCLDY    70  64  83 CALM      30.08F
LEWISBURG      PTCLDY    64  63  94 CALM      30.08S
MCMINNVILLE    MOCLDY    66  63  88 CALM      30.09S
MURFREESBORO   PTCLDY    72  61  68 S5        30.06S
PULASKI        MOCLDY    66  63  88 CALM      30.07S
SHELBYVILLE    CLEAR     64  63  94 E3        30.08S
TULLAHOMA      MOCLDY    66  63  88 CALM      30.09S
WINCHESTER     MOCLDY    72  64  78 CALM      30.09S
$$


...KEY TO REMARKS...
VSB - VISIBILITY IN MILES
WCI - WIND CHILL INDEX
HX  - HEAT INDEX





USA.gov is the U.S. government's official web portal to all federal, state and local government web resources and services.